Location: Chateh
(58.6667°N, 118.6000°W)
Time: 17:20:34
(UTC+00:00)

Gurwin Techsat 1B - Pass Details

Date: 10 December 2023
Orbit: 810 x 813 km, 98.9° (Epoch: 21 February)

Event Time Altitude Azimuth Distance (km) Brightness Sun altitude
Rises 11:20:09 0° 18° (NNE) 3,353 12.3 -38.2°
Reaches altitude 10° 11:22:31 10° 22° (NNE) 2,418 11.5 -37.9°
Enters shadow 11:24:02 19° 26° (NNE) 1,844 10.8 -37.8°
